• Em Portugal
  • Lista de países
  • Para 7 dias
  • Temperatura da água
  • Mapas de satélite
  • Mapa do tempo
  • Widgets de tempo
  • user-avatar
    Iniciar Sessão

    Previsão horária em The Bissagos Islands

    Hoje, 20 Setembro, Quarta-feira

    Tempo Temperatura Precipitação Vento Pressão Humidade
    00:00 +28°C° 0,1 mm 4 m/s 762 mmHg 84%
    01:00 +28°C° 0,1 mm 4 m/s 761 mmHg 85%
    02:00 +28°C° 0,1 mm 5 m/s 761 mmHg 86%
    03:00 +28°C° 0 mm 5 m/s 761 mmHg 86%
    04:00 +28°C° 0 mm 5 m/s 761 mmHg 86%
    05:00 +28°C° 0 mm 6 m/s 761 mmHg 86%
    06:00 +29°C° 0 mm 5 m/s 761 mmHg 83%
    07:00 +30°C° 0 mm 5 m/s 761 mmHg 79%
    08:00 +32°C° 0 mm 5 m/s 761 mmHg 76%
    09:00 +33°C° 0 mm 5 m/s 761 mmHg 72%
    10:00 +34°C° 0 mm 5 m/s 761 mmHg 68%
    11:00 +34°C° 0 mm 4 m/s 761 mmHg 65%
    12:00 +35°C° 0 mm 5 m/s 761 mmHg 64%
    13:00 +35°C° 0 mm 5 m/s 761 mmHg 63%
    14:00 +36°C° 0 mm 6 m/s 760 mmHg 62%
    15:00 +35°C° 0,8 mm 6 m/s 760 mmHg 66%
    16:00 +34°C° 0,8 mm 7 m/s 760 mmHg 70%
    17:00 +33°C° 0,8 mm 7 m/s 760 mmHg 73%
    18:00 +32°C° 1 mm 7 m/s 760 mmHg 77%
    19:00 +30°C° 1 mm 7 m/s 760 mmHg 81%
    20:00 +29°C° 1 mm 7 m/s 761 mmHg 85%
    21:00 +29°C° 0 mm 7 m/s 761 mmHg 86%
    22:00 +29°C° 0 mm 7 m/s 760 mmHg 87%
    23:00 +29°C° 0 mm 7 m/s 760 mmHg 89%

    Amanhã, 21 Setembro, Quinta-feira

    Tempo Temperatura Precipitação Vento Pressão Humidade
    00:00 +29°C° 0 mm 7 m/s 760 mmHg 90%
    01:00 +28°C° 0 mm 7 m/s 759 mmHg 91%
    02:00 +28°C° 0 mm 7 m/s 759 mmHg 91%
    03:00 +28°C° 0,1 mm 7 m/s 759 mmHg 92%
    04:00 +28°C° 0,1 mm 7 m/s 759 mmHg 92%
    05:00 +28°C° 0,1 mm 7 m/s 759 mmHg 92%
    06:00 +29°C° 0,1 mm 6 m/s 760 mmHg 87%
    07:00 +30°C° 0,1 mm 6 m/s 760 mmHg 82%
    08:00 +32°C° 0,1 mm 6 m/s 760 mmHg 77%
    09:00 +33°C° 0 mm 6 m/s 760 mmHg 71%
    10:00 +35°C° 0 mm 6 m/s 761 mmHg 66%
    11:00 +36°C° 0 mm 6 m/s 761 mmHg 60%
    12:00 +36°C° 0 mm 6 m/s 760 mmHg 60%
    13:00 +36°C° 0 mm 6 m/s 759 mmHg 60%
    14:00 +36°C° 0 mm 6 m/s 759 mmHg 60%
    15:00 +35°C° 0 mm 6 m/s 759 mmHg 63%
    16:00 +34°C° 0 mm 6 m/s 759 mmHg 67%
    17:00 +33°C° 0 mm 6 m/s 758 mmHg 70%
    18:00 +32°C° 0 mm 6 m/s 759 mmHg 74%
    19:00 +30°C° 0 mm 6 m/s 759 mmHg 78%
    20:00 +29°C° 0 mm 5 m/s 759 mmHg 82%
    21:00 +29°C° 0 mm 5 m/s 760 mmHg 83%
    22:00 +29°C° 0 mm 6 m/s 760 mmHg 84%
    23:00 +29°C° 0 mm 6 m/s 760 mmHg 85%

    Depois de amanhã, 22 Setembro, Sexta-feira

    Tempo Temperatura Precipitação Vento Pressão Humidade
    00:00 +29°C° 0 mm 6 m/s 759 mmHg 85%
    01:00 +29°C° 0 mm 6 m/s 759 mmHg 86%
    02:00 +28°C° 0 mm 6 m/s 758 mmHg 87%
    03:00 +28°C° 0 mm 6 m/s 758 mmHg 87%
    04:00 +28°C° 0 mm 6 m/s 758 mmHg 88%
    05:00 +28°C° 0 mm 6 m/s 758 mmHg 89%
    06:00 +29°C° 0 mm 6 m/s 758 mmHg 84%
    07:00 +30°C° 0 mm 5 m/s 759 mmHg 79%
    08:00 +32°C° 0 mm 5 m/s 760 mmHg 74%
    09:00 +32°C° 0 mm 4 m/s 760 mmHg 72%
    10:00 +33°C° 0 mm 4 m/s 760 mmHg 69%
    11:00 +33°C° 0 mm 3 m/s 760 mmHg 67%
    12:00 +34°C° 0,1 mm 3 m/s 759 mmHg 63%
    13:00 +35°C° 0,1 mm 3 m/s 759 mmHg 59%
    14:00 +36°C° 0,1 mm 4 m/s 758 mmHg 56%
    15:00 +35°C° 0 mm 4 m/s 758 mmHg 61%
    16:00 +34°C° 0 mm 4 m/s 758 mmHg 66%
    17:00 +33°C° 0 mm 4 m/s 758 mmHg 71%
    18:00 +32°C° 0 mm 5 m/s 758 mmHg 73%
    19:00 +30°C° 0 mm 5 m/s 759 mmHg 76%
    20:00 +30°C° 0 mm 5 m/s 759 mmHg 79%
    21:00 +30°C° 0 mm 5 m/s 759 mmHg 80%
    22:00 +29°C° 0 mm 6 m/s 760 mmHg 80%
    23:00 +29°C° 0 mm 6 m/s 760 mmHg 81%

    23 Setembro, Sábado

    Tempo Temperatura Precipitação Vento Pressão Humidade
    00:00 +29°C° 0 mm 5 m/s 759 mmHg 82%
    01:00 +29°C° 0 mm 5 m/s 759 mmHg 82%
    02:00 +29°C° 0 mm 5 m/s 758 mmHg 83%
    03:00 +29°C° 0,4 mm 5 m/s 758 mmHg 85%
    04:00 +28°C° 0,4 mm 5 m/s 759 mmHg 87%
    05:00 +28°C° 0,4 mm 5 m/s 759 mmHg 89%
    06:00 +29°C° 0,5 mm 5 m/s 759 mmHg 86%
    07:00 +29°C° 0,5 mm 5 m/s 759 mmHg 83%
    08:00 +30°C° 0,5 mm 5 m/s 760 mmHg 80%
    09:00 +32°C° 0,7 mm 5 m/s 760 mmHg 76%
    10:00 +33°C° 0,7 mm 5 m/s 760 mmHg 72%
    11:00 +34°C° 0,7 mm 5 m/s 760 mmHg 67%
    12:00 +34°C° 0 mm 5 m/s 759 mmHg 66%
    13:00 +34°C° 0 mm 6 m/s 759 mmHg 64%
    14:00 +35°C° 0 mm 6 m/s 758 mmHg 63%
    15:00 +34°C° 0 mm 6 m/s 758 mmHg 66%
    16:00 +33°C° 0 mm 7 m/s 759 mmHg 69%
    17:00 +32°C° 0 mm 7 m/s 759 mmHg 72%
    18:00 +30°C° 0 mm 7 m/s 759 mmHg 75%
    19:00 +30°C° 0 mm 7 m/s 760 mmHg 78%
    20:00 +29°C° 0 mm 6 m/s 760 mmHg 81%
    21:00 +29°C° 0,1 mm 7 m/s 760 mmHg 84%
    22:00 +28°C° 0,1 mm 7 m/s 760 mmHg 86%
    23:00 +28°C° 0,1 mm 7 m/s 760 mmHg 89%

    24 Setembro, Domingo

    Tempo Temperatura Precipitação Vento Pressão Humidade
    00:00 +28°C° 1,2 mm 7 m/s 760 mmHg 89%
    01:00 +28°C° 1,2 mm 7 m/s 759 mmHg 89%
    02:00 +28°C° 1,2 mm 7 m/s 759 mmHg 89%
    03:00 +28°C° 1,3 mm 7 m/s 759 mmHg 89%
    04:00 +28°C° 1,3 mm 7 m/s 759 mmHg 89%
    05:00 +28°C° 1,3 mm 7 m/s 759 mmHg 89%
    06:00 +28°C° 1,7 mm 7 m/s 759 mmHg 89%
    07:00 +28°C° 1,7 mm 7 m/s 760 mmHg 89%
    08:00 +28°C° 1,7 mm 6 m/s 760 mmHg 89%
    09:00 +28°C° 4,6 mm 7 m/s 760 mmHg 88%
    10:00 +28°C° 4,6 mm 7 m/s 760 mmHg 88%
    11:00 +28°C° 4,6 mm 7 m/s 760 mmHg 87%
    12:00 +28°C° 10,3 mm 8 m/s 760 mmHg 89%
    13:00 +28°C° 10,3 mm 8 m/s 760 mmHg 91%
    14:00 +27°C° 10,3 mm 9 m/s 759 mmHg 93%
    15:00 +27°C° 8,5 mm 9 m/s 759 mmHg 93%
    16:00 +27°C° 8,5 mm 9 m/s 760 mmHg 93%
    17:00 +27°C° 8,5 mm 8 m/s 760 mmHg 92%
    18:00 +27°C° 5,9 mm 8 m/s 760 mmHg 92%
    19:00 +27°C° 5,9 mm 8 m/s 761 mmHg 92%
    20:00 +27°C° 5,9 mm 7 m/s 761 mmHg 92%
    21:00 +27°C° 11,9 mm 8 m/s 761 mmHg 92%
    22:00 +27°C° 11,9 mm 8 m/s 761 mmHg 93%
    23:00 +27°C° 11,9 mm 9 m/s 761 mmHg 93%

    25 Setembro, Segunda-feira

    Tempo Temperatura Precipitação Vento Pressão Humidade
    00:00 +27°C° 4,3 mm 8 m/s 761 mmHg 93%
    01:00 +27°C° 4,3 mm 8 m/s 760 mmHg 93%
    02:00 +27°C° 4,3 mm 7 m/s 760 mmHg 93%
    03:00 +27°C° 0,8 mm 7 m/s 760 mmHg 93%
    04:00 +27°C° 0,8 mm 6 m/s 760 mmHg 93%
    05:00 +28°C° 0,8 mm 6 m/s 760 mmHg 93%
    06:00 +28°C° 1,2 mm 5 m/s 761 mmHg 93%
    07:00 +28°C° 1,2 mm 4 m/s 761 mmHg 93%
    08:00 +28°C° 1,2 mm 4 m/s 762 mmHg 93%
    09:00 +28°C° 1,5 mm 3 m/s 762 mmHg 93%
    10:00 +28°C° 1,5 mm 3 m/s 762 mmHg 93%
    11:00 +28°C° 1,5 mm 2 m/s 762 mmHg 93%
    12:00 +28°C° 0,5 mm 2 m/s 761 mmHg 91%
    13:00 +28°C° 0,5 mm 2 m/s 760 mmHg 90%
    14:00 +28°C° 0,5 mm 2 m/s 760 mmHg 89%
    15:00 +28°C° 0,1 mm 2 m/s 760 mmHg 88%
    16:00 +28°C° 0,1 mm 2 m/s 760 mmHg 88%
    17:00 +28°C° 0,1 mm 2 m/s 760 mmHg 87%
    18:00 +28°C° 0 mm 2 m/s 760 mmHg 89%
    19:00 +27°C° 0 mm 1 m/s 761 mmHg 91%
    20:00 +27°C° 0 mm 1 m/s 761 mmHg 93%
    21:00 +27°C° 0,1 mm 1 m/s 761 mmHg 93%
    22:00 +27°C° 0,1 mm 1 m/s 761 mmHg 94%
    23:00 +26°C° 0,1 mm 1 m/s 761 mmHg 95%
    Mostrar mais